Annapolis Naval Academy, MD

5:40 AM EDT on October 18, 2017 (GMT -0400)
Annapolis Naval Academy

Weather History for KNAK - July, 2013

Change the Weather History Date:

Friday, July 12, 2013

  Actual Average (KBWI) Record (KBWI)
Temperature  
Mean Temperature 72 °F -  
Max Temperature 77 °F 87 °F 97 °F (1908)
Min Temperature 68 °F 66 °F 53 °F (2002)
Cooling Degree Days 8    
Growing Degree Days 22 (Base 50)    
Moisture  
Dew Point 71 °F    
Average Humidity 97    
Maximum Humidity 100    
Minimum Humidity 88    
Precipitation  
Precipitation 2.14 in - - ()
Sea Level Pressure  
Sea Level Pressure 29.96 in    
Wind  
Wind Speed 7 mph (NNW)    
Max Wind Speed 16 mph    
Max Gust Speed -    
Visibility 4 miles    
Events Fog , Rain    
Averages and records for this station are not official NWS values.
T = Trace of Precipitation, MM = Missing Value Source: NWS Daily Summary

Daily Weather History Graph

Daily Weather History Graph

Search for Another Location

Airport or City:

Trip Planner

Search our weather history database for the weather conditions in past years. The results will help you decide how hot, cold, wet, or windy it might be!

Date:

Astronomy

Jul. 12, 2013 Rise Set
Actual Time 5:50 AM EDT 8:32 PM EDT
Civil Twilight 5:19 AM EDT 9:03 PM EDT
Nautical Twilight 4:40 AM EDT 9:42 PM EDT
Astronomical Twilight 3:55 AM EDT 10:26 PM EDT
Moon 10:02 AM EDT (7/12) 10:44 PM EDT (7/12)
Length of Visible Light 15h 44m
Length of Day
14h 41m
Waxing Crescent, 17% of the Moon is Illuminated
Jul 12
Waxing Crescent
Jul 15
First Quarter
Jul 22
Full
Jul 29
Last Quarter
Aug 6
New

Hourly Weather History & Observations

Time (EDT) Temp. Dew Point Humidity Pressure Visibility Wind Dir Wind Speed Gust Speed Precip Events Conditions
12:54 AM 77.0 °F 73.0 °F 88% 29.91 in 10.0 mi Calm Calm - N/A   Scattered Clouds
1:54 AM 75.9 °F 73.0 °F 91% 29.91 in 10.0 mi Calm Calm - N/A   Mostly Cloudy
2:54 AM 75.9 °F 73.0 °F 91% 29.91 in 10.0 mi West 3.5 mph - 0.00 in   Overcast
3:54 AM 77.0 °F 73.0 °F 88% 29.88 in 10.0 mi North 9.2 mph - 0.00 in   Mostly Cloudy
4:54 AM 72.0 °F 70.0 °F 93% 29.93 in 3.0 mi SW 6.9 mph - 0.05 in Rain Rain
5:09 AM 70.0 °F 69.1 °F 97% 29.95 in 1.8 mi WSW 8.1 mph - 0.10 in Rain Heavy Rain
5:18 AM 70.0 °F 70.0 °F 100% 29.93 in 0.5 mi WNW 11.5 mph - 0.37 in Fog , Rain Heavy Rain
5:32 AM 70.0 °F 69.1 °F 97% 29.93 in 1.2 mi NW 9.2 mph - 0.57 in Rain Heavy Rain
5:54 AM 70.0 °F 69.1 °F 97% 29.93 in 2.0 mi NNW 10.4 mph - 0.77 in Rain Rain
6:03 AM 70.0 °F 69.1 °F 97% 29.93 in 3.0 mi North 9.2 mph - 0.03 in Rain Rain
6:12 AM 69.1 °F 69.1 °F 100% 29.94 in 2.0 mi North 5.8 mph - 0.08 in Rain Heavy Rain
6:38 AM 69.1 °F 68.0 °F 96% 29.95 in 4.0 mi NNW 5.8 mph - 0.16 in Rain Light Rain
6:54 AM 68.0 °F 68.0 °F 100% 29.96 in 2.0 mi West 3.5 mph - 0.22 in Rain Rain
7:03 AM 69.1 °F 68.0 °F 96% 29.95 in 1.8 mi WNW 5.8 mph - 0.05 in Rain Heavy Rain
7:13 AM 69.1 °F 69.1 °F 100% 29.95 in 2.5 mi NW 8.1 mph - 0.09 in Rain Rain
7:30 AM 69.1 °F 69.1 °F 100% 29.96 in 1.8 mi NW 5.8 mph - 0.19 in Rain Heavy Rain
7:38 AM 70.0 °F 70.0 °F 100% 29.96 in 0.5 mi NNW 8.1 mph - 0.36 in Fog , Rain Heavy Rain
7:54 AM 70.0 °F 70.0 °F 100% 29.95 in 1.0 mi NNE 16.1 mph - 0.45 in Rain Light Rain
8:54 AM 70.0 °F 69.1 °F 97% 29.97 in 5.0 mi North 10.4 mph - 0.04 in Rain Light Rain
9:43 AM 71.1 °F 70.0 °F 96% 29.96 in 6.0 mi North 6.9 mph - 0.03 in Rain Light Rain
9:54 AM 71.1 °F 70.0 °F 96% 29.97 in 6.0 mi North 8.1 mph - 0.04 in Rain Light Rain
10:54 AM 71.1 °F 70.0 °F 96% 29.98 in 4.0 mi NE 9.2 mph - 0.03 in Rain Light Rain
11:07 AM 71.1 °F 70.0 °F 96% 29.97 in 2.5 mi NNE 8.1 mph - 0.02 in Rain Light Rain
11:16 AM 71.1 °F 71.1 °F 100% 29.97 in 5.0 mi NE 6.9 mph - 0.03 in Rain Light Rain
11:37 AM 71.1 °F 70.0 °F 96% 29.98 in 5.0 mi NNE 11.5 mph - 0.04 in Rain Light Rain
11:54 AM 72.0 °F 70.0 °F 93% 29.99 in 6.0 mi NNE 12.7 mph - 0.05 in Rain Light Rain
12:05 PM 72.0 °F 70.0 °F 93% 29.98 in 7.0 mi NNE 12.7 mph - 0.00 in Rain Light Rain
12:54 PM 71.1 °F 70.0 °F 96% 29.96 in 4.0 mi NE 13.8 mph - 0.01 in Rain Light Rain
1:30 PM 71.1 °F 70.0 °F 96% 29.98 in 3.0 mi North 8.1 mph - 0.05 in Rain Light Rain
1:54 PM 71.1 °F 70.0 °F 96% 29.99 in 2.0 mi NNW 10.4 mph - 0.10 in Rain Rain
2:09 PM 71.1 °F 70.0 °F 96% 29.97 in 5.0 mi North 9.2 mph - 0.02 in Rain Light Rain
2:32 PM 71.1 °F 70.0 °F 96% 29.97 in 4.0 mi North 12.7 mph - 0.04 in Rain Light Rain
2:49 PM 71.6 °F 71.6 °F 100% 29.98 in 6.0 mi North 8.1 mph - 0.05 in Rain Light Rain
2:54 PM 72.0 °F 71.1 °F 97% 30.00 in 6.0 mi NNW 5.8 mph - 0.05 in Rain Light Rain
3:54 PM 72.0 °F 71.1 °F 97% 29.99 in 5.0 mi NNE 9.2 mph - 0.04 in Rain Light Rain
4:19 PM 72.0 °F 71.1 °F 97% 29.98 in 2.5 mi NNE 9.2 mph - 0.02 in Rain Light Rain
4:54 PM 72.0 °F 72.0 °F 100% 29.99 in 3.0 mi North 6.9 mph - 0.06 in Rain Light Rain
5:43 PM 72.0 °F 71.1 °F 97% 29.97 in 2.0 mi NNW 8.1 mph - 0.02 in Rain Light Rain
5:54 PM 72.0 °F 72.0 °F 100% 29.98 in 5.0 mi NNW 9.2 mph - 0.02 in Rain Light Rain
6:03 PM 72.0 °F 71.1 °F 97% 29.97 in 4.0 mi NW 8.1 mph - 0.01 in Rain Light Rain
6:12 PM 72.0 °F 72.0 °F 100% 29.97 in 3.0 mi NNW 11.5 mph - 0.01 in Rain Light Rain
6:16 PM 72.0 °F 72.0 °F 100% 29.97 in 2.5 mi NNW 10.4 mph - 0.02 in Rain Light Rain
6:28 PM 72.0 °F 72.0 °F 100% 29.97 in 2.5 mi NNW 10.4 mph - 0.03 in Rain Light Rain
6:54 PM 72.0 °F 72.0 °F 100% 29.99 in 2.5 mi NNW 11.5 mph - 0.06 in Rain Light Rain
7:09 PM 72.0 °F 72.0 °F 100% 29.98 in 1.8 mi NNW 11.5 mph - 0.03 in Rain Rain
7:54 PM 72.0 °F 72.0 °F 100% 29.98 in 2.0 mi NNW 12.7 mph - 0.15 in Rain Rain
8:05 PM 72.0 °F 71.1 °F 97% 29.97 in 6.0 mi NW 9.2 mph - 0.00 in Rain Light Rain
8:54 PM 73.0 °F 72.0 °F 96% 29.99 in 8.0 mi NW 9.2 mph - 0.00 in Rain Light Rain
9:54 PM 73.0 °F 71.1 °F 93% 29.99 in 10.0 mi NNW 9.2 mph - 0.00 in   Overcast
10:54 PM 73.0 °F 71.1 °F 93% 30.01 in 10.0 mi NNW 6.9 mph - N/A   Overcast
11:54 PM 72.0 °F 70.0 °F 93% 30.01 in 10.0 mi West 4.6 mph - N/A   Overcast